• MPC Preparation (Info)

  • MPEC 2019-T125 : 2019 TU2

    The following Minor Planet Electronic Circular may be linked-to from your own Web pages, but must not otherwise be redistributed electronically.

    A form allowing access to any MPEC is at the bottom of this page.


    Read MPEC 2019-T124 Read MPEC 2019-T126


    M.P.E.C. 2019-T125                              Issued 2019 October 7, 15:54 UT
    
         The Minor Planet Electronic Circulars contain information on unusual
             minor planets and routine data on comets.  They are published
        on behalf of Division F of the International Astronomical Union by the
              Minor Planet Center, Smithsonian Astrophysical Observatory,
                              Cambridge, MA 02138, U.S.A.
    
                 Prepared using the Tamkin Foundation Computer Network
    
                                  MPC@CFA.HARVARD.EDU
                URL https://www.minorplanetcenter.net/    ISSN 1523-6714
    
                                    2019 TU2                                 
    
    
    Observations:
         K19T02U* C2019 10 05.41970 00 11 17.314-13 35 47.90         21.6 wUET125F51
         K19T02U  C2019 10 05.43017700 11 19.450-13 35 15.60         21.5 GVET125F51
         K19T02U  C2019 10 05.43146 00 11 19.716-13 35 11.75         21.3 wUET125F51
         K19T02U  C2019 10 05.44191900 11 21.820-13 34 39.57         22.0 GVET125F51
         K19T02U  C2019 10 05.44320 00 11 22.083-13 34 35.80         22.0 wUET125F51
         K19T02U  C2019 10 05.45493400 11 24.488-13 33 59.12         21.8 GVET125F51
         K19T02U  C2019 10 05.46539000 11 26.608-13 33 26.69         21.6 GVET125F51
         K19T02U |C2019 10 06.09799 00 14 03.78 -13 01 02.1          21.8 GVET125807
         K19T02U |C2019 10 06.10360 00 14 04.85 -13 00 46.7          21.9 GVET125807
         K19T02U |C2019 10 06.10920 00 14 05.91 -13 00 31.1          22.1 GVET125807
         K19T02U  C2019 10 06.48370800 15 22.884-12 45 06.49         21.5 GVET125F51
    
    Observer details:
    807 Cerro Tololo Observatory, La Serena.  Observers T. Linder, R. Holmes.  
        1.00-m f/10.0 astrograph + CCD.
    F51 Pan-STARRS 1, Haleakala.  Observers J. Bulger, T. Lowe, A. Schultz, M. 
       Willman, K. Chambers, E. Magnier.  Measurers K. Chambers, S. Chastel, T. de 
       Boer, L. Denneau, J. Fairlamb, H. Flewelling, M. Huber, C.-C. Lin, E. 
       Magnier, Y. Ramanjooloo, R. Wainscoat, R. Weryk.  1.8-m Ritchey-Chretien + 
       CCD.
    
    Orbital elements:
    2019 TU2                                                 Earth MOID = 0.0053 AU
    Epoch 2019 Apr. 27.0 TT = JDT 2458600.5                 Bell
    M 294.47743              (2000.0)            P               Q
    n   0.64873103     Peri.  126.63055     +0.46974890     +0.88277158
    a   1.3215784      Node   171.37870     -0.82430846     +0.44148666
    e   0.3348706      Incl.    2.71217     -0.31599293     +0.16063581
    P   1.52           H   26.4           G   0.15           U   8
    Residuals in seconds of arc
    191005 F51  0.0   0.4-    191005 F51  0.0   0.7-    191006 807  0.8+  0.2-
    191005 F51  0.2+  0.3-    191005 F51  0.2+  0.3-    191006 807  1.0+  0.1+
    191005 F51  0.2+  0.4-    191005 F51  0.0   0.3-    191006 F51  0.8+  0.1-
    191005 F51  0.0   0.5-    191006 807  0.6+  0.2-
    
    Ephemeris:
    2019 TU2                 a,e,i = 1.32, 0.33, 3                   q = 0.8790
    Date    TT    R. A. (2000) Decl.     Delta      r    Elong.  Phase     V
    2019 09 07    13 37 03.6 -04 19 19   0.09147 0.9403    40.5   135.8    27.4
    ...
    2019 09 22    17 23 37.3 -36 36 07   0.02105 1.0021    84.2    94.6    21.4
    ...
    2019 09 30    23 32 14.2 -20 45 58   0.04267 1.0401   153.6    25.3    20.8
    ...
    2019 10 06    00 13 38.1 -13 06 16   0.07420 1.0702   160.5    18.2    21.8
    2019 10 07    00 17 13.6 -12 21 56   0.07975 1.0753   160.8    17.8    22.0
    2019 10 08    00 20 21.3 -11 42 31   0.08535 1.0804   161.0    17.5    22.1
    ...
    2019 10 14    00 33 08.4 -08 52 02   0.1202  1.1117   160.4    17.5    22.9
    ...
    2019 10 22    00 42 44.5 -06 29 53   0.1703  1.1540   157.0    19.7    23.9
    ...
    2019 11 06    00 55 15.5 -03 19 56   0.2769  1.2338   147.4    25.7    25.2
    
    A. U. Tomatic                (C) Copyright 2019 MPC           M.P.E.C. 2019-T125
    


    Read MPEC 2019-T124 Read MPEC 2019-T126


    MPEC number:

    Enter an MPEC number in one of the following forms:

    • 1997-B01 (the full form)
    • J97B01 (the packed version of the full form)
    • B01 (the abbreviated form)